Volver al catálogo

USA 325

ActivoNavegaciónGEO
NORAD 51281·PAYLOAD·🇺🇸 United States

Lanzado Jan 21, 2022 desde Cape Canaveral Space Force Station

Loading…

TLE

ObsoletoSource: Space-Track

Época: Jan 6, 2026, 17:01 UTC

1 51281U 22006B   26006.70962434 -.00000360  00000-0  00000+0 0  9995
2 51281   0.1656  83.9928 0022746 181.1199 218.2610  1.00266333 14512

Sigue USA 325 en tiempo real con AllMySat

Download on the App Store